TimeAWST,TemperatureF,Dew PointF,Humidity,Sea Level PressureIn,VisibilityMPH,Wind Direction,Wind SpeedMPH,Gust SpeedMPH,PrecipitationIn,Events,Conditions,WindDirDegrees,DateUTC
12:00 AM,69,67,90,29.88,,SW,3.5,,,,,220,2013-06-15 16:00:00
12:00 AM,69.8,66.2,88,29.89,-9999.0,SW,3.5,-,N/A,,Unknown,220,2013-06-15 16:00:00
1:00 AM,69.8,68.0,94,29.86,-9999.0,SSW,4.6,-,N/A,,Unknown,210,2013-06-15 17:00:00
2:00 AM,69.8,66.2,88,29.86,-9999.0,SSW,3.5,-,N/A,,Unknown,210,2013-06-15 18:00:00
3:00 AM,67,64,86,29.86,,Calm,Calm,,,,,,2013-06-15 19:00:00
3:00 AM,66.2,64.4,94,29.86,-9999.0,Calm,Calm,-,N/A,,Unknown,0,2013-06-15 19:00:00
4:00 AM,66.2,62.6,88,29.86,-9999.0,South,3.5,-,N/A,,Unknown,170,2013-06-15 20:00:00
5:00 AM,66.2,60.8,83,29.86,-9999.0,South,3.5,-,N/A,,Unknown,180,2013-06-15 21:00:00
6:00 AM,65,60,79,29.88,,SSE,4.6,,,,,150,2013-06-15 22:00:00
6:00 AM,64.4,60.8,88,29.89,-9999.0,SSE,4.6,-,N/A,,Unknown,150,2013-06-15 22:00:00
7:00 AM,68.0,62.6,83,29.89,-9999.0,SSE,3.5,-,N/A,,Unknown,150,2013-06-15 23:00:00
8:00 AM,77.0,66.2,69,29.92,-9999.0,ENE,4.6,-,N/A,,Unknown,60,2013-06-16 00:00:00
9:00 AM,79,66,56,29.93,,East,2.3,,,,,90,2013-06-16 01:00:00
9:00 AM,78.8,66.2,65,29.92,-9999.0,East,2.3,-,N/A,,Unknown,90,2013-06-16 01:00:00
10:00 AM,82.4,66.2,58,29.92,-9999.0,East,2.3,-,N/A,,Unknown,100,2013-06-16 02:00:00
11:00 AM,84.2,64.4,51,29.89,-9999.0,SE,3.5,-,N/A,,Unknown,140,2013-06-16 03:00:00
12:00 PM,85,61,34,29.87,,WSW,5.8,,,,,250,2013-06-16 04:00:00
12:00 PM,86.0,60.8,43,29.86,-9999.0,WSW,5.8,-,N/A,,Unknown,250,2013-06-16 04:00:00
1:00 PM,86.0,60.8,43,29.83,-9999.0,SW,3.5,-,N/A,,Unknown,230,2013-06-16 05:00:00
2:00 PM,87.8,60.8,40,29.80,-9999.0,SSW,5.8,-,N/A,,Unknown,210,2013-06-16 06:00:00
3:00 PM,87,62,33,29.81,,West,4.6,,,,,260,2013-06-16 07:00:00
3:00 PM,87.8,62.6,43,29.80,-9999.0,West,4.6,-,N/A,,Unknown,260,2013-06-16 07:00:00
4:00 PM,86.0,64.4,48,29.80,-9999.0,West,5.8,-,N/A,,Unknown,280,2013-06-16 08:00:00
5:00 PM,80.6,66.2,61,29.83,-9999.0,WNW,4.6,-,N/A,,Unknown,300,2013-06-16 09:00:00
6:00 PM,76,65,61,29.84,,NW,4.6,,,,,310,2013-06-16 10:00:00
6:00 PM,77.0,64.4,65,29.83,-9999.0,NW,4.6,-,N/A,,Unknown,310,2013-06-16 10:00:00
7:00 PM,71.6,62.6,73,29.86,-9999.0,NNW,3.5,-,N/A,,Unknown,340,2013-06-16 11:00:00
8:00 PM,69.8,62.6,78,29.86,-9999.0,Calm,Calm,-,N/A,,Unknown,0,2013-06-16 12:00:00
9:00 PM,69,62,74,29.87,,West,4.6,,,,,270,2013-06-16 13:00:00
9:00 PM,69.8,62.6,78,29.86,-9999.0,West,4.6,-,N/A,,Unknown,270,2013-06-16 13:00:00
10:00 PM,68.0,60.8,78,29.86,-9999.0,SW,3.5,-,N/A,,Unknown,230,2013-06-16 14:00:00
11:00 PM,66.2,60.8,83,29.86,-9999.0,SW,3.5,-,N/A,,Unknown,230,2013-06-16 15:00:00